Home > Weather > Scottsdale > Past weeks

Flag for USA Past Weather in Scottsdale, Arizona, USA — Yesterday and Last 2 Weeks

Now
92 °F

Sunny.


Feels Like: 88 °F
Forecast: 73 / 94 °F
Wind: 3 mph from Northwest

Location: Scottsdale Airport

Current Time: Aug 27, 2016 at 7:25:34 PM

Latest Report: Aug 27, 2016 at 6:53 PM


Visibility: 10 mi

Pressure: 29.80 "Hg

Humidity: 18%

Dew Point: 42 °F

Location of ScottsdaleLocation

Past Weather in Scottsdale — Graph

°F

Scottsdale Temperature Yesterday

Maximum temperature yesterday: 95 °F (at 3:53 PM)
Minimum temperature yesterday: 77 °F (at 3:53 AM)
Average temperature yesterday: 88 °F

High & Low Weather Summary for the Past Weeks

 TemperatureHumidityPressure
High109 °F (Aug 16, 3:53 PM)78% (Aug 23, 6:53 AM)29.98 "Hg (Aug 23, 6:53 AM)
Low71 °F (Aug 23, 5:53 AM)11% (Aug 17, 2:53 PM)29.67 "Hg (Aug 13, 6:53 PM)
Average91 °F32%29.81 "Hg
* Reported Aug 12 5:53 PM — Aug 27 5:53 PM, Scottsdale, Weather by CustomWeather, © 2016

Note: Actual official high and low records may vary slightly from our data, if they occured in-between our weather recording intervals... More about our weather records

Advertising

Scottsdale Weather History for the Previous 24 Hours

Scroll right to see more
 ConditionsComfort  
Time TempWeatherWind HumidityBarometerVisibility
5:53 PM
Sat, Aug 27
94 °FSunny.5 mph17%29.79 "Hg10 mi
4:53 PM94 °FPassing clouds.6 mph18%29.80 "Hg10 mi
3:53 PM94 °FSunny.8 mph18%29.80 "Hg10 mi
2:53 PM94 °FSunny.6 mph17%29.82 "Hg10 mi
1:53 PM93 °FPassing clouds.8 mph19%29.85 "Hg10 mi
12:53 PM92 °FSunny.No wind22%29.87 "Hg10 mi
11:53 AM89 °FScattered clouds.6 mph28%29.90 "Hg10 mi
10:53 AM89 °FPartly sunny.8 mph29%29.91 "Hg10 mi
9:53 AM87 °FScattered clouds.9 mph33%29.91 "Hg10 mi
8:53 AM83 °FScattered clouds.10 mph43%29.90 "Hg10 mi
7:53 AM81 °FOvercast.17 mph47%29.90 "Hg10 mi
6:53 AM78 °FScattered clouds.9 mph54%29.88 "Hg10 mi
5:53 AM78 °FPassing clouds.No wind52%29.84 "Hg10 mi
4:53 AM80 °FThundershowers. Passing clouds.6 mph52%29.82 "Hg10 mi
3:53 AM82 °FPassing clouds.No wind44%29.80 "Hg10 mi
2:53 AM83 °FClear.5 mph41%29.79 "Hg10 mi
1:53 AM84 °FClear.3 mph40%29.79 "Hg10 mi
12:53 AM86 °FClear.No wind37%29.79 "Hg10 mi
11:53 PM
Fri, Aug 26
87 °FClear.No wind35%29.80 "Hg10 mi
10:53 PM88 °FClear.No wind35%29.80 "Hg10 mi
9:53 PM89 °FClear.5 mph32%29.80 "Hg10 mi
8:53 PM91 °FPassing clouds.8 mph26%29.80 "Hg10 mi
7:53 PM92 °FClear.5 mph26%29.78 "Hg10 mi
Weather by CustomWeather, © 2016

See weather overviewHow to use our weather pages